Time,TemperatureF,DewpointF,PressureIn,WindDirection,WindDirectionDegrees,WindSpeedMPH,WindSpeedGustMPH,Humidity,HourlyPrecipIn,Conditions,Clouds,dailyrainin,SoftwareType,DateUTC
2013-07-28 00:05:00,53.8,48.2,29.92,West,277,3.0,5.0,76,0.00,NA,NA,0.00,meteo_script,2013-07-28 05:05:00,
2013-07-28 00:35:00,53.8,48.2,29.93,WSW,257,4.1,6.0,76,0.00,NA,NA,0.00,meteo_script,2013-07-28 05:35:00,
2013-07-28 01:05:00,53.6,48.6,29.92,West,264,3.0,6.0,78,0.00,NA,NA,0.00,meteo_script,2013-07-28 06:05:00,
2013-07-28 01:35:00,53.5,48.5,29.91,West,269,3.6,7.0,78,0.00,NA,NA,0.00,meteo_script,2013-07-28 06:35:00,
2013-07-28 02:05:00,53.5,48.7,29.91,West,271,3.2,5.0,79,0.00,NA,NA,0.00,meteo_script,2013-07-28 07:05:00,
2013-07-28 02:35:00,53.5,48.7,29.90,WSW,257,2.0,6.0,79,0.00,NA,NA,0.00,meteo_script,2013-07-28 07:35:00,
2013-07-28 03:05:00,53.5,49.0,29.90,WSW,249,2.2,3.0,80,0.00,NA,NA,0.00,meteo_script,2013-07-28 08:05:00,
2013-07-28 03:35:00,53.2,48.9,29.90,West,263,4.0,7.0,80,0.00,NA,NA,0.00,meteo_script,2013-07-28 08:35:00,
2013-07-28 04:05:00,53.2,49.2,29.90,West,265,0.9,2.0,82,0.00,NA,NA,0.00,meteo_script,2013-07-28 09:05:00,
2013-07-28 04:35:00,53.2,49.4,29.91,West,269,1.5,5.0,83,0.04,NA,NA,0.02,meteo_script,2013-07-28 09:35:00,
2013-07-28 05:05:00,52.8,49.1,29.91,West,260,0.8,2.0,83,0.00,NA,NA,0.02,meteo_script,2013-07-28 10:05:00,
2013-07-28 05:35:00,52.8,49.2,29.91,West,274,3.1,4.0,84,0.00,NA,NA,0.02,meteo_script,2013-07-28 10:35:00,
2013-07-28 06:05:00,52.7,48.9,29.92,WSW,255,2.3,7.0,83,0.00,NA,NA,0.02,meteo_script,2013-07-28 11:05:00,
2013-07-28 06:35:00,52.4,49.0,29.93,North,0,0.0,0.0,84,0.00,NA,NA,0.02,meteo_script,2013-07-28 11:35:00,
2013-07-28 07:05:00,52.5,48.7,29.94,WSW,254,0.6,2.0,83,0.00,NA,NA,0.02,meteo_script,2013-07-28 12:05:00,
2013-07-28 07:35:00,52.6,49.1,29.94,WSW,252,1.1,3.0,84,0.00,NA,NA,0.02,meteo_script,2013-07-28 12:35:00,
2013-07-28 08:05:00,53.7,49.4,29.95,West,269,1.0,4.0,81,0.00,NA,NA,0.02,meteo_script,2013-07-28 13:05:00,
2013-07-28 08:35:00,56.8,50.6,29.94,West,268,1.9,6.0,74,0.00,NA,NA,0.02,meteo_script,2013-07-28 13:35:00,
2013-07-28 09:05:00,56.5,49.4,29.95,West,275,3.5,6.0,71,0.00,NA,NA,0.02,meteo_script,2013-07-28 14:05:00,
2013-07-28 09:35:00,56.0,48.6,29.95,North,0,0.7,2.0,69,0.00,NA,NA,0.02,meteo_script,2013-07-28 14:35:00,
2013-07-28 10:05:00,55.5,48.5,29.96,West,272,2.2,4.0,71,0.00,NA,NA,0.02,meteo_script,2013-07-28 15:05:00,
2013-07-28 10:35:00,57.0,48.3,29.96,NNE,22,1.3,3.0,65,0.00,NA,NA,0.02,meteo_script,2013-07-28 15:35:00,
2013-07-28 11:05:00,57.2,49.0,29.97,West,281,0.6,3.0,67,0.00,NA,NA,0.02,meteo_script,2013-07-28 16:05:00,
2013-07-28 11:35:00,57.5,48.9,29.98,West,266,1.7,5.0,66,0.00,NA,NA,0.02,meteo_script,2013-07-28 16:35:00,
2013-07-28 12:05:00,59.0,48.9,29.98,WNW,284,1.0,2.0,61,0.00,NA,NA,0.02,meteo_script,2013-07-28 17:05:00,
2013-07-28 12:35:00,61.2,50.7,29.98,West,266,1.5,5.0,60,0.00,NA,NA,0.02,meteo_script,2013-07-28 17:35:00,
2013-07-28 13:05:00,61.3,51.3,29.99,WSW,251,1.7,6.0,62,0.00,NA,NA,0.02,meteo_script,2013-07-28 18:05:00,
2013-07-28 13:35:00,61.5,51.8,29.99,West,273,0.4,1.0,63,0.00,NA,NA,0.02,meteo_script,2013-07-28 18:35:00,
2013-07-28 14:05:00,64.3,53.1,29.99,West,267,3.1,6.0,59,0.00,NA,NA,0.02,meteo_script,2013-07-28 19:05:00,
2013-07-28 14:35:00,63.7,52.6,29.99,West,265,3.2,6.0,59,0.00,NA,NA,0.02,meteo_script,2013-07-28 19:35:00,
2013-07-28 15:05:00,64.2,53.5,29.99,West,273,2.4,8.0,60,0.00,NA,NA,0.02,meteo_script,2013-07-28 20:05:00,
2013-07-28 15:35:00,66.4,53.5,29.99,West,264,0.6,4.0,55,0.00,NA,NA,0.02,meteo_script,2013-07-28 20:35:00,
2013-07-28 16:05:00,66.4,53.9,29.99,WSW,255,1.7,4.0,56,0.00,NA,NA,0.02,meteo_script,2013-07-28 21:05:00,
2013-07-28 16:35:00,67.1,53.4,30.00,West,276,5.0,9.0,53,0.00,NA,NA,0.02,meteo_script,2013-07-28 21:35:00,
2013-07-28 17:05:00,65.8,53.4,29.99,West,259,1.4,5.0,56,0.00,NA,NA,0.02,meteo_script,2013-07-28 22:05:00,
2013-07-28 17:35:00,66.1,53.9,30.00,West,265,0.8,4.0,57,0.00,NA,NA,0.02,meteo_script,2013-07-28 22:35:00,
2013-07-28 18:05:00,66.0,54.2,30.00,West,271,1.9,4.0,58,0.00,NA,NA,0.02,meteo_script,2013-07-28 23:05:00,
2013-07-28 18:35:00,65.3,53.9,30.00,WSW,251,0.0,1.0,59,0.00,NA,NA,0.02,meteo_script,2013-07-28 23:35:00,
2013-07-28 19:05:00,65.4,54.0,30.01,West,270,3.5,7.0,59,0.00,NA,NA,0.02,meteo_script,2013-07-29 00:05:00,
2013-07-28 19:35:00,65.0,53.7,30.02,West,272,4.6,11.0,59,0.00,NA,NA,0.02,meteo_script,2013-07-29 00:35:00,
2013-07-28 20:05:00,64.0,53.5,30.02,WSW,249,0.4,2.0,61,0.00,NA,NA,0.02,meteo_script,2013-07-29 01:05:00,
2013-07-28 20:35:00,63.1,53.6,30.02,North,0,0.0,0.0,64,0.00,NA,NA,0.02,meteo_script,2013-07-29 01:35:00,
2013-07-28 21:05:00,62.7,53.8,30.03,WSW,254,0.1,1.0,66,0.00,NA,NA,0.02,meteo_script,2013-07-29 02:05:00,
2013-07-28 21:35:00,62.3,53.5,30.03,West,272,2.7,4.0,66,0.00,NA,NA,0.02,meteo_script,2013-07-29 02:35:00,
2013-07-28 22:05:00,61.7,53.0,30.04,West,265,1.3,4.0,66,0.00,NA,NA,0.02,meteo_script,2013-07-29 03:05:00,
2013-07-28 22:35:00,60.9,53.0,30.05,West,267,0.6,2.0,68,0.00,NA,NA,0.02,meteo_script,2013-07-29 03:35:00,
2013-07-28 23:05:00,60.2,52.7,30.06,West,276,1.8,4.0,70,0.00,NA,NA,0.02,meteo_script,2013-07-29 04:05:00,
2013-07-28 23:35:00,60.1,52.3,30.06,West,264,2.6,4.0,69,0.00,NA,NA,0.02,meteo_script,2013-07-29 04:35:00,